Time,TemperatureF,DewpointF,PressureIn,WindDirection,WindDirectionDegrees,WindSpeedMPH,WindSpeedGustMPH,Humidity,HourlyPrecipIn,Conditions,Clouds,dailyrainin,SoftwareType,DateUTC
2013-05-19 00:02:00,71.0,63.0,-100.00,SE,135,8.0,10.0,78,0.00,,,-99.99,,2013-05-19 05:02:00,
2013-05-19 00:12:00,71.0,63.0,-100.00,SE,140,7.0,10.0,78,0.00,,,-99.99,,2013-05-19 05:12:00,
2013-05-19 00:22:00,70.0,63.0,-100.00,SE,140,7.0,9.0,78,0.00,,,-99.99,,2013-05-19 05:22:00,
2013-05-19 00:32:00,71.0,63.0,-100.00,SE,140,8.0,10.0,78,0.00,,,-99.99,,2013-05-19 05:32:00,
2013-05-19 00:42:00,71.0,63.0,-100.00,SE,140,8.0,10.0,78,0.00,,,-99.99,,2013-05-19 05:42:00,
2013-05-19 00:51:00,70.0,63.0,-100.00,SE,140,8.0,9.0,80,0.00,,,-99.99,,2013-05-19 05:51:00,
2013-05-19 01:02:00,70.0,63.0,-100.00,SE,140,8.0,9.0,80,0.00,,,-99.99,,2013-05-19 06:02:00,
2013-05-19 01:12:00,70.0,64.0,-100.00,SSE,150,9.0,11.0,81,0.00,,,-99.99,,2013-05-19 06:12:00,
2013-05-19 01:21:00,69.0,64.0,-100.00,SSE,150,8.0,9.0,81,0.00,,,-99.99,,2013-05-19 06:21:00,
2013-05-19 01:32:00,70.0,64.0,-100.00,SE,145,7.0,9.0,81,0.00,,,-99.99,,2013-05-19 06:32:00,
2013-05-19 01:42:00,70.0,64.0,-100.00,SE,145,7.0,9.0,81,0.00,,,-99.99,,2013-05-19 06:42:00,
2013-05-19 01:51:00,70.0,64.0,-100.00,SE,145,7.0,10.0,81,0.00,,,-99.99,,2013-05-19 06:51:00,
2013-05-19 02:01:00,70.0,64.0,-100.00,SE,145,7.0,10.0,81,0.00,,,-99.99,,2013-05-19 07:01:00,
2013-05-19 02:11:00,71.0,64.0,-100.00,SE,140,7.0,11.0,80,0.00,,,-99.99,,2013-05-19 07:11:00,
2013-05-19 02:21:00,71.0,64.0,-100.00,SSE,150,7.0,11.0,80,0.00,,,-99.99,,2013-05-19 07:21:00,
2013-05-19 02:32:00,71.0,64.0,-100.00,SSE,150,7.0,11.0,79,0.00,,,-99.99,,2013-05-19 07:32:00,
2013-05-19 02:42:00,71.0,64.0,-100.00,SSE,150,8.0,10.0,79,0.00,,,-99.99,,2013-05-19 07:42:00,
2013-05-19 02:52:00,71.0,64.0,-100.00,SE,145,9.0,11.0,80,0.00,,,-99.99,,2013-05-19 07:52:00,
2013-05-19 03:01:00,71.0,64.0,-100.00,SE,145,9.0,11.0,80,0.00,,,-99.99,,2013-05-19 08:01:00,
2013-05-19 03:12:00,71.0,64.0,-100.00,SE,140,8.0,11.0,80,0.00,,,-99.99,,2013-05-19 08:12:00,
2013-05-19 03:22:00,70.0,64.0,-100.00,SE,135,8.0,11.0,81,0.00,,,-99.99,,2013-05-19 08:22:00,
2013-05-19 03:32:00,70.0,65.0,-100.00,SSE,155,8.0,11.0,82,0.00,,,-99.99,,2013-05-19 08:32:00,
2013-05-19 03:42:00,70.0,65.0,-100.00,SSE,155,8.0,11.0,82,0.00,,,-99.99,,2013-05-19 08:42:00,
2013-05-19 03:52:00,71.0,65.0,-100.00,South,180,9.0,11.0,83,0.00,,,-99.99,,2013-05-19 08:52:00,
2013-05-19 04:02:00,71.0,65.0,-100.00,South,180,9.0,11.0,83,0.00,,,-99.99,,2013-05-19 09:02:00,
2013-05-19 04:11:00,70.0,66.0,-100.00,South,185,7.0,14.0,86,0.00,,,-99.99,,2013-05-19 09:11:00,
2013-05-19 04:21:00,69.0,66.0,-100.00,South,170,6.0,9.0,88,0.00,,,-99.99,,2013-05-19 09:21:00,
2013-05-19 04:32:00,68.0,65.0,-100.00,South,175,6.0,6.0,92,0.00,,,-99.99,,2013-05-19 09:32:00,
2013-05-19 04:42:00,68.0,65.0,-100.00,South,175,6.0,6.0,92,0.00,,,-99.99,,2013-05-19 09:42:00,
2013-05-19 04:53:00,68.0,66.0,-100.00,SE,125,6.0,7.0,93,0.00,,,-99.99,,2013-05-19 09:53:00,
2013-05-19 05:02:00,68.0,66.0,-100.00,SE,125,6.0,7.0,93,0.00,,,-99.99,,2013-05-19 10:02:00,
2013-05-19 05:12:00,67.0,66.0,-100.00,ESE,110,6.0,6.0,93,0.00,,,-99.99,,2013-05-19 10:12:00,
2013-05-19 05:22:00,67.0,66.0,-100.00,SE,145,4.0,9.0,93,0.01,,,-99.99,,2013-05-19 10:22:00,
2013-05-19 05:33:00,68.0,66.0,-100.00,ESE,105,4.0,11.0,94,0.00,,,-99.99,,2013-05-19 10:33:00,
2013-05-19 05:42:00,68.0,66.0,-100.00,ESE,105,4.0,11.0,94,0.00,,,-99.99,,2013-05-19 10:42:00,
2013-05-19 05:52:00,68.0,67.0,-100.00,ESE,105,11.0,13.0,94,0.00,,,-99.99,,2013-05-19 10:52:00,
2013-05-19 06:02:00,68.0,67.0,-100.00,ESE,105,11.0,13.0,94,0.00,,,-99.99,,2013-05-19 11:02:00,
2013-05-19 06:11:00,68.0,67.0,-100.00,SE,125,9.0,12.0,94,0.00,,,-99.99,,2013-05-19 11:11:00,
2013-05-19 06:21:00,68.0,66.0,-100.00,SE,125,7.0,11.0,94,0.00,,,-99.99,,2013-05-19 11:21:00,
2013-05-19 06:32:00,68.0,67.0,-100.00,SE,140,7.0,9.0,94,0.00,,,-99.99,,2013-05-19 11:32:00,
2013-05-19 06:42:00,68.0,67.0,-100.00,SE,140,7.0,9.0,94,0.00,,,-99.99,,2013-05-19 11:42:00,
2013-05-19 06:52:00,68.0,67.0,-100.00,SSE,160,8.0,10.0,94,0.00,,,-99.99,,2013-05-19 11:52:00,
2013-05-19 07:01:00,68.0,67.0,-100.00,SSE,160,8.0,10.0,94,0.00,,,-99.99,,2013-05-19 12:01:00,
2013-05-19 07:11:00,68.0,67.0,-100.00,SE,145,7.0,9.0,94,0.00,,,-99.99,,2013-05-19 12:11:00,
2013-05-19 07:21:00,68.0,67.0,-100.00,SE,140,6.0,9.0,95,0.00,,,-99.99,,2013-05-19 12:21:00,
2013-05-19 07:32:00,69.0,67.0,-100.00,SE,145,5.0,6.0,95,0.00,,,-99.99,,2013-05-19 12:32:00,
2013-05-19 07:41:00,69.0,67.0,-100.00,SE,145,5.0,6.0,95,0.00,,,-99.99,,2013-05-19 12:41:00,
2013-05-19 07:52:00,69.0,68.0,-100.00,East,95,11.0,14.0,94,0.00,,,-99.99,,2013-05-19 12:52:00,
2013-05-19 08:01:00,69.0,68.0,-100.00,East,95,11.0,14.0,94,0.00,,,-99.99,,2013-05-19 13:01:00,
2013-05-19 08:11:00,70.0,68.0,-100.00,East,100,11.0,15.0,93,0.00,,,-99.99,,2013-05-19 13:11:00,
2013-05-19 08:21:00,70.0,68.0,-100.00,ESE,110,12.0,14.0,93,0.00,,,-99.99,,2013-05-19 13:21:00,
2013-05-19 08:32:00,71.0,69.0,-100.00,SE,125,13.0,16.0,92,0.00,,,-99.99,,2013-05-19 13:32:00,
2013-05-19 08:42:00,71.0,69.0,-100.00,SE,125,13.0,16.0,92,0.00,,,-99.99,,2013-05-19 13:42:00,
2013-05-19 08:52:00,72.0,68.0,-100.00,SE,135,12.0,15.0,86,0.00,,,-99.99,,2013-05-19 13:52:00,
2013-05-19 09:02:00,72.0,68.0,-100.00,SE,135,12.0,15.0,86,0.00,,,-99.99,,2013-05-19 14:02:00,
2013-05-19 09:11:00,73.0,68.0,-100.00,SE,135,11.0,19.0,83,0.00,,,-99.99,,2013-05-19 14:11:00,
2013-05-19 09:21:00,74.0,68.0,-100.00,SSE,155,14.0,18.0,81,0.00,,,-99.99,,2013-05-19 14:21:00,
2013-05-19 09:32:00,75.0,68.0,-100.00,SSE,160,14.0,20.0,78,0.00,,,-99.99,,2013-05-19 14:32:00,
2013-05-19 09:41:00,75.0,68.0,-100.00,SSE,160,14.0,20.0,78,0.00,,,-99.99,,2013-05-19 14:41:00,
2013-05-19 09:51:00,77.0,68.0,-100.00,SSE,155,18.0,25.0,73,0.00,,,-99.99,,2013-05-19 14:51:00,
2013-05-19 10:01:00,77.0,68.0,-100.00,SSE,155,18.0,25.0,73,0.00,,,-99.99,,2013-05-19 15:01:00,
2013-05-19 10:11:00,77.0,67.0,-100.00,SSE,155,17.0,26.0,71,0.00,,,-99.99,,2013-05-19 15:11:00,
2013-05-19 10:21:00,78.0,67.0,-100.00,SSE,150,14.0,29.0,69,0.00,,,-99.99,,2013-05-19 15:21:00,
2013-05-19 10:33:00,81.0,65.0,-100.00,SSE,160,12.0,21.0,59,0.00,,,-99.99,,2013-05-19 15:33:00,
2013-05-19 10:43:00,81.0,65.0,-100.00,SSE,160,12.0,21.0,59,0.00,,,-99.99,,2013-05-19 15:43:00,
2013-05-19 10:53:00,80.0,64.0,-100.00,SSE,150,17.0,28.0,58,0.00,,,-99.99,,2013-05-19 15:53:00,
2013-05-19 11:03:00,80.0,64.0,-100.00,SSE,150,17.0,28.0,58,0.00,,,-99.99,,2013-05-19 16:03:00,
2013-05-19 11:12:00,79.0,64.0,-100.00,South,170,20.0,28.0,60,0.00,,,-99.99,,2013-05-19 16:12:00,
2013-05-19 11:23:00,79.0,64.0,-100.00,SSE,150,14.0,26.0,61,0.00,,,-99.99,,2013-05-19 16:23:00,
2013-05-19 11:32:00,78.0,65.0,-100.00,SE,130,14.0,19.0,63,0.00,,,-99.99,,2013-05-19 16:32:00,
2013-05-19 11:42:00,78.0,65.0,-100.00,SE,130,14.0,19.0,63,0.00,,,-99.99,,2013-05-19 16:42:00,
2013-05-19 11:52:00,80.0,66.0,-100.00,SE,140,12.0,17.0,63,0.00,,,-99.99,,2013-05-19 16:52:00,
2013-05-19 12:02:00,80.0,66.0,-100.00,SE,140,12.0,17.0,63,0.00,,,-99.99,,2013-05-19 17:02:00,
2013-05-19 12:12:00,80.0,66.0,-100.00,SE,145,14.0,21.0,62,0.00,,,-99.99,,2013-05-19 17:12:00,
2013-05-19 12:22:00,82.0,67.0,-100.00,SE,140,12.0,24.0,59,0.00,,,-99.99,,2013-05-19 17:22:00,
2013-05-19 12:32:00,83.0,64.0,-100.00,SSE,155,13.0,27.0,51,0.00,,,-99.99,,2013-05-19 17:32:00,
2013-05-19 12:42:00,83.0,64.0,-100.00,SSE,155,13.0,27.0,51,0.00,,,-99.99,,2013-05-19 17:42:00,
2013-05-19 12:52:00,86.0,63.0,-100.00,SSE,165,19.0,29.0,46,0.00,,,-99.99,,2013-05-19 17:52:00,
2013-05-19 13:02:00,86.0,63.0,-100.00,SSE,165,19.0,29.0,46,0.00,,,-99.99,,2013-05-19 18:02:00,
2013-05-19 13:12:00,86.0,63.0,-100.00,SSE,160,13.0,29.0,46,0.00,,,-99.99,,2013-05-19 18:12:00,
2013-05-19 13:22:00,86.0,62.0,-100.00,SSE,165,24.0,32.0,44,0.00,,,-99.99,,2013-05-19 18:22:00,
2013-05-19 13:32:00,86.0,61.0,-100.00,South,180,22.0,31.0,42,0.00,,,-99.99,,2013-05-19 18:32:00,
2013-05-19 13:42:00,86.0,61.0,-100.00,South,180,22.0,31.0,42,0.00,,,-99.99,,2013-05-19 18:42:00,
2013-05-19 13:52:00,88.0,63.0,-100.00,South,175,16.0,35.0,42,0.00,,,-99.99,,2013-05-19 18:52:00,
2013-05-19 14:01:00,88.0,63.0,-100.00,South,175,16.0,35.0,42,0.00,,,-99.99,,2013-05-19 19:01:00,
2013-05-19 14:11:00,86.0,61.0,-100.00,South,190,18.0,28.0,42,0.00,,,-99.99,,2013-05-19 19:11:00,
2013-05-19 14:21:00,87.0,61.0,-100.00,South,190,18.0,32.0,42,0.00,,,-99.99,,2013-05-19 19:21:00,
2013-05-19 14:32:00,87.0,60.0,-100.00,SSW,205,24.0,32.0,40,0.00,,,-99.99,,2013-05-19 19:32:00,
2013-05-19 14:42:00,87.0,60.0,-100.00,SSW,205,24.0,32.0,40,0.00,,,-99.99,,2013-05-19 19:42:00,
2013-05-19 14:52:00,86.0,62.0,-100.00,SSE,160,12.0,30.0,45,0.00,,,-99.99,,2013-05-19 19:52:00,
2013-05-19 15:02:00,86.0,62.0,-100.00,SSE,160,12.0,30.0,45,0.00,,,-99.99,,2013-05-19 20:02:00,
2013-05-19 15:11:00,85.0,63.0,-100.00,South,175,12.0,16.0,47,0.00,,,-99.99,,2013-05-19 20:11:00,
2013-05-19 15:21:00,85.0,64.0,-100.00,SSE,165,10.0,17.0,49,0.00,,,-99.99,,2013-05-19 20:21:00,
2013-05-19 15:32:00,84.0,65.0,-100.00,South,170,14.0,19.0,53,0.00,,,-99.99,,2013-05-19 20:32:00,
2013-05-19 15:41:00,84.0,65.0,-100.00,South,170,14.0,19.0,53,0.00,,,-99.99,,2013-05-19 20:41:00,
2013-05-19 15:52:00,84.0,64.0,-100.00,SSE,155,12.0,24.0,52,0.00,,,-99.99,,2013-05-19 20:52:00,
2013-05-19 16:02:00,84.0,64.0,-100.00,SSE,155,12.0,24.0,52,0.00,,,-99.99,,2013-05-19 21:02:00,
2013-05-19 16:11:00,85.0,65.0,-100.00,South,170,12.0,26.0,51,0.00,,,-99.99,,2013-05-19 21:11:00,
2013-05-19 16:22:00,85.0,65.0,-100.00,South,170,17.0,29.0,51,0.00,,,-99.99,,2013-05-19 21:22:00,
2013-05-19 16:32:00,86.0,64.0,-100.00,South,170,18.0,27.0,48,0.00,,,-99.99,,2013-05-19 21:32:00,
2013-05-19 16:43:00,86.0,64.0,-100.00,South,170,18.0,27.0,48,0.00,,,-99.99,,2013-05-19 21:43:00,
2013-05-19 16:53:00,85.0,63.0,-100.00,South,170,16.0,24.0,47,0.00,,,-99.99,,2013-05-19 21:53:00,
2013-05-19 17:03:00,85.0,63.0,-100.00,South,170,16.0,24.0,47,0.00,,,-99.99,,2013-05-19 22:03:00,
2013-05-19 17:12:00,86.0,63.0,-100.00,South,170,12.0,25.0,46,0.00,,,-99.99,,2013-05-19 22:12:00,
2013-05-19 17:23:00,86.0,63.0,-100.00,South,170,10.0,15.0,46,0.00,,,-99.99,,2013-05-19 22:23:00,
2013-05-19 17:33:00,86.0,63.0,-100.00,SSE,155,12.0,21.0,46,0.00,,,-99.99,,2013-05-19 22:33:00,
2013-05-19 17:42:00,86.0,63.0,-100.00,SSE,155,12.0,21.0,46,0.00,,,-99.99,,2013-05-19 22:42:00,
2013-05-19 17:52:00,86.0,64.0,-100.00,SSE,150,10.0,15.0,48,0.00,,,-99.99,,2013-05-19 22:52:00,
2013-05-19 18:02:00,86.0,64.0,-100.00,SSE,150,10.0,15.0,48,0.00,,,-99.99,,2013-05-19 23:02:00,
2013-05-19 18:11:00,86.0,64.0,-100.00,SSE,150,13.0,22.0,48,0.00,,,-99.99,,2013-05-19 23:11:00,
2013-05-19 18:21:00,86.0,64.0,-100.00,South,170,15.0,23.0,47,0.00,,,-99.99,,2013-05-19 23:21:00,
2013-05-19 18:32:00,85.0,63.0,-100.00,SSE,155,11.0,17.0,49,0.00,,,-99.99,,2013-05-19 23:32:00,
2013-05-19 18:42:00,85.0,63.0,-100.00,SSE,155,11.0,17.0,49,0.00,,,-99.99,,2013-05-19 23:42:00,
2013-05-19 18:52:00,83.0,64.0,-100.00,SSE,155,10.0,12.0,52,0.00,,,-99.99,,2013-05-19 23:52:00,
2013-05-19 19:02:00,83.0,64.0,-100.00,SSE,155,10.0,12.0,52,0.00,,,-99.99,,2013-05-20 00:02:00,
2013-05-19 19:11:00,81.0,66.0,-100.00,SSE,155,9.0,11.0,61,0.00,,,-99.99,,2013-05-20 00:11:00,
2013-05-19 19:21:00,81.0,67.0,-100.00,SSE,155,9.0,14.0,63,0.00,,,-99.99,,2013-05-20 00:21:00,
2013-05-19 19:32:00,81.0,67.0,-100.00,SSE,160,11.0,13.0,62,0.00,,,-99.99,,2013-05-20 00:32:00,
2013-05-19 19:41:00,81.0,67.0,-100.00,SSE,160,11.0,13.0,62,0.00,,,-99.99,,2013-05-20 00:41:00,
2013-05-19 19:52:00,81.0,68.0,-100.00,SSE,160,11.0,14.0,65,0.00,,,-99.99,,2013-05-20 00:52:00,
2013-05-19 20:01:00,81.0,68.0,-100.00,SSE,160,11.0,14.0,65,0.00,,,-99.99,,2013-05-20 01:01:00,
2013-05-19 20:11:00,80.0,68.0,-100.00,SSE,165,10.0,13.0,65,0.00,,,-99.99,,2013-05-20 01:11:00,
2013-05-19 20:21:00,80.0,68.0,-100.00,South,170,9.0,12.0,67,0.00,,,-99.99,,2013-05-20 01:21:00,
2013-05-19 20:31:00,79.0,68.0,-100.00,South,175,6.0,9.0,69,0.00,,,-99.99,,2013-05-20 01:31:00,
2013-05-19 20:42:00,79.0,68.0,-100.00,South,175,6.0,9.0,69,0.00,,,-99.99,,2013-05-20 01:42:00,
2013-05-19 20:52:00,69.0,62.0,-100.00,NW,325,6.0,23.0,77,0.00,,,-99.99,,2013-05-20 01:52:00,
2013-05-19 21:02:00,69.0,62.0,-100.00,NW,325,6.0,23.0,77,0.00,,,-99.99,,2013-05-20 02:02:00,
2013-05-19 21:11:00,68.0,62.0,-100.00,North,0,12.0,20.0,80,0.00,,,-99.99,,2013-05-20 02:11:00,
2013-05-19 21:21:00,68.0,62.0,-100.00,North,355,7.0,17.0,82,0.00,,,-99.99,,2013-05-20 02:21:00,
2013-05-19 21:31:00,66.0,63.0,-100.00,NW,305,12.0,18.0,91,0.23,,,-99.99,,2013-05-20 02:31:00,
2013-05-19 21:42:00,66.0,63.0,-100.00,NW,305,12.0,18.0,91,0.23,,,-99.99,,2013-05-20 02:42:00,
2013-05-19 21:51:00,64.0,63.0,-100.00,SW,220,12.0,32.0,99,0.00,,,-99.99,,2013-05-20 02:51:00,
2013-05-19 22:01:00,64.0,63.0,-100.00,SW,220,12.0,32.0,99,0.00,,,-99.99,,2013-05-20 03:01:00,
2013-05-19 22:11:00,64.0,64.0,-100.00,WSW,255,16.0,34.0,99,1.28,,,-99.99,,2013-05-20 03:11:00,
2013-05-19 22:21:00,62.0,62.0,-100.00,West,260,15.0,23.0,99,0.30,,,-99.99,,2013-05-20 03:21:00,
2013-05-19 22:33:00,62.0,62.0,-100.00,WSW,245,7.0,12.0,99,0.21,,,-99.99,,2013-05-20 03:33:00,
2013-05-19 22:42:00,62.0,62.0,-100.00,WSW,245,7.0,12.0,99,0.21,,,-99.99,,2013-05-20 03:42:00,
2013-05-19 22:52:00,61.0,61.0,-100.00,SSW,210,6.0,7.0,99,0.14,,,-99.99,,2013-05-20 03:52:00,
2013-05-19 23:02:00,61.0,61.0,-100.00,SSW,210,6.0,7.0,99,0.14,,,-99.99,,2013-05-20 04:02:00,
2013-05-19 23:12:00,61.0,61.0,-100.00,SSE,150,4.0,6.0,99,0.08,,,-99.99,,2013-05-20 04:12:00,
2013-05-19 23:23:00,61.0,61.0,-100.00,ESE,120,4.0,6.0,99,0.11,,,-99.99,,2013-05-20 04:23:00,
2013-05-19 23:33:00,61.0,61.0,-100.00,East,85,4.0,5.0,99,0.00,,,-99.99,,2013-05-20 04:33:00,
2013-05-19 23:42:00,61.0,61.0,-100.00,East,85,4.0,5.0,99,0.00,,,-99.99,,2013-05-20 04:42:00,
2013-05-19 23:52:00,61.0,61.0,-100.00,ESE,105,6.0,7.0,99,0.00,,,-99.99,,2013-05-20 04:52:00,